STARLINK-36607, 67620

Orbit data source: Space-Track

STARLINK-36607, 67620 is a payload satellite owned by SpaceX/Seattle (US) in LEO that was launched on Fri, 30 Jan 2026 UTC via an FALCON 9 launch vehicle from the Air Force Eastern Test Range (AFETR). Payload-class satellites include a variety of spacecraft equipped with specific instruments for various scientific and technological missions. These include communications satellites like Starlink; space stations such as the ISS; scientific satellites like the Hubble; Earth observation satellites from companies like Planet Labs, Umbra, and HawkEye 360; GPS; miniature CubeSats for education and research; and military/defense satellites.

Loading next visibility...
Identifier
67620, 2026-020D
Orbit
LEO
Country
Flag of USUS
Related business
Manufacturer
SpaceX/Seattle
Mission
Operational spacecraft
Bus & Motor
STARLINK V2MO, Unknown motor
Mass
575 kg wet, ~530 kg dry
Launch date (UTC)
2026-01-30 (2 months ago)
Launch vehicle
FALCON 9
Launch site
Air Force Eastern Test Range (AFETR)
Object type
Payload
Rocket body
Debris
Shape & HBR
Unknown shape, 17.7 m
Radar Cross Section
RCS unknown

Expand to show TLE details & history
Last TLE update: 7 hours ago

TLE from 7 hours ago
0 STARLINK-36607
1 67620U 26020D   26104.82259905  .00007586  00000-0  28486-3 0  9991
2 67620  42.9997 295.3608 0001253 268.0581  92.0127 15.27585521 11641
Epoch: 2026-04-14T19:44Z
TLE epoch observation values (Epoch: 2026-04-14T19:44:32.557Z)
Latitude
-0.00005°
Longitude
156.23177°
Altitude
482.838 km
Speed
7.626 km/s
True Right ascension
19h 41m 26s
True Declination
0° 00' 00"
Sunlit
Object was in daylight at epoch
Visualization orbit readout
Latitude
Unknown
Longitude
Unknown
Altitude
Unknown
Speed
Unknown
Apparent Right ascension
Unknown
Apparent Declination
Unknown
Sunlit
N/A
Visualization observer readout
Local Sidereal Time
09:19:18
Azimuth
Unknown
Elevation
Unknown
Doppler factor
Unknown
Orbital elements
Apogee altitude
485.838 km
Perigee altitude
484.118 km
Semi-major axis
6,863.115 km
Eccentricity
0.00013
Inclination
42.9997°
RAAN
295.3608°
Arg. of periapsis
268.0581°
True anomaly
92.02705°
Mean anomaly
92.0127°
Eccentric anomaly
92.01987°
Mean motion
3.81734 °/min
Orbital period
94.31 mins
BSTAR
0.00028486
Loading maneuver chart data...
Computing Atmospheric mass density...
Loading historical data...
Loading historical data...
Loading historical data...
Loading historical data...
Loading historical data...
Loading historical data...
Loading historical data...

Documentation

Showing up to 5 results
|